Hourly Data Report for September 16, 2020

BRIER ISLAND
NOVA SCOTIA
Current Station Operator: ECCC - MSC

44°17'09.000" N
66°20'48.000" W
15.80 m
8200604
71988
WVU

Download Data

Hourly Data (September 2020)
Hourly Data Report for September 16, 2020
TIME Temp Definition
°C
Dew Point Definition
°C
Rel Hum Definition
%
Wind Dir Definition
10's deg

Wind Spd Definition
km/h
Visibility Definition
km
Stn Press Definition
kPa
Hmdx Definition


Wind Chill Definition


Weather Definition


00:00 11.5 10.7 95 22 8   102.24     LegendNANA
01:00 11.8 10.9 94 23 11   102.20     LegendNANA
02:00 11.6 10.9 95 20 5   102.20     LegendNANA
03:00 11.3 10.9 97 19 6   102.20     LegendNANA
04:00 11.2 11.0 99 16 9   102.19     LegendNANA
05:00 12.1 11.8 98 19 12   102.17     LegendNANA
06:00 11.5 11.3 99 18 13   102.16     LegendNANA
07:00 12.3 11.5 95 17 14   102.19     LegendNANA
08:00 13.5 11.9 90 17 14   102.19     LegendNANA
09:00 14.7 11.8 83 17 14   102.22     LegendNANA
10:00 15.0 10.2 73 16 22   102.20     LegendNANA
11:00 15.1 10.4 73 16 25   102.15     LegendNANA
12:00 15.5 10.5 72 16 26   102.10     LegendNANA
13:00 15.7 11.3 75 16 25   102.05     LegendNANA
14:00 15.4 11.1 75 16 25   102.00     LegendNANA
15:00 15.3 11.6 79 16 22   101.97     LegendNANA
16:00 14.6 11.5 81 16 24   101.90     LegendNANA
17:00 13.8 11.6 86 16 28   101.84     LegendNANA
18:00 13.3 12.7 96 16 27   101.79     LegendNANA
19:00 13.1 12.8 98 16 27   101.75     LegendNANA
20:00 13.2 12.7 97 16 30   101.72     LegendNANA
21:00 13.2 12.9 99 16 27   101.71     LegendNANA
22:00 13.2 13.1 99 16 29   101.65     LegendNANA
23:00 13.6 13.3 98 17 26   101.67     LegendNANA

Notes on Data Quality.

Legend

  • E = Estimated
  • M = Missing
  • NA = Not Available*
  • [empty] = Indicates an unobserved value
Date modified: